Location: Campos dos Goitacazes
(21.7500°S, 41.3000°W)
Time: 01:37:51
(UTC-03:00)

BlueWalker 3 - Visible Passes

Search period start: 24 June 2024 00:00
Search period end: 04 July 2024 00:00
Orbit: 480 x 493 km, 53.2° (Epoch: 23 June)

Date Brightness Start Highest point End Pass type
(mag) Time Alt. Az. Time Alt. Az. Time Alt. Az.
24 Jun 5.1 04:17:26 10° NNE 04:19:12 13° ENE 04:20:57 10° E visible
24 Jun 2.5 05:53:34 10° WNW 05:57:02 34° SW 06:00:33 10° SSE visible
25 Jun 5.1 03:53:01 11° NE 03:53:29 11° ENE 03:54:48 10° E visible
25 Jun 2.4 05:27:46 10° WNW 05:31:18 38° SW 05:34:53 10° SSE visible
26 Jun 2.2 05:05:33 42° SW 05:05:33 42° SW 05:09:13 10° SSE visible
27 Jun 4.1 04:42:38 16° SSE 04:42:38 16° SSE 04:43:30 10° SSE visible
